This is the latest recevied weather packets stored in our database for station/object HS5XHC-1. If no packets are shown the sender has not sent any weather packets the latest 1 day(s).
| Time | Temp. | Humidity | Pressure | Rain* | Wind** | Luminosity | Snow |
|---|---|---|---|---|---|---|---|
| 1778118353 | 30° C | 52% | 968 hPa | - | - | 0 W/m² | - |
| 1778117729 | 30° C | 51% | 968 hPa | - | - | 0 W/m² | - |
| 1778117105 | 30° C | 50% | 968 hPa | - | - | 0 W/m² | - |
| 1778113361 | 30° C | 49% | 967 hPa | - | - | 0 W/m² | - |
| 1778112737 | 30° C | 48% | 967 hPa | - | - | 0 W/m² | - |
| 1778111489 | 30° C | 48% | 967 hPa | - | - | 0 W/m² | - |
| 1778110865 | 29.44° C | 50% | 967 hPa | - | - | 0 W/m² | - |
| 1778100882 | 29.44° C | 54% | 966 hPa | - | - | 0 W/m² | - |
| 1778100258 | 29.44° C | 53% | 966 hPa | - | - | 0 W/m² | - |
| 1778095065 | 29.44° C | 52% | 965 hPa | - | - | 0 W/m² | - |
| 1778090698 | 30.56° C | 49% | 966 hPa | - | - | 0 W/m² | - |
| 1778090074 | 30° C | 49% | 966 hPa | - | - | 0 W/m² | - |
| 1778089450 | 30° C | 50% | 966 hPa | - | - | 0 W/m² | - |
| 1778086876 | 31.11° C | 47% | 966 hPa | - | - | 0 W/m² | - |
| 1778086252 | 31.11° C | 48% | 966 hPa | - | - | 0 W/m² | - |
| 1778082508 | 31.11° C | 47% | 966 hPa | - | - | 0 W/m² | - |
| 1778081884 | 31.11° C | 46% | 966 hPa | - | - | 0 W/m² | - |
| 1778081260 | 31.11° C | 46% | 966 hPa | - | - | 0 W/m² | - |
| 1778080636 | 31.67° C | 46% | 966 hPa | - | - | 0 W/m² | - |
| 1778079388 | 31.11° C | 45% | 966 hPa | - | - | 0 W/m² | - |
| 1778078764 | 31.67° C | 43% | 965 hPa | - | - | 0 W/m² | - |
| 1778074397 | 33.33° C | 40% | 964 hPa | - | - | 0 W/m² | - |
| 1778073149 | 33.33° C | 38% | 964 hPa | - | - | 0 W/m² | - |
| 1778070029 | 34.44° C | 36% | 964 hPa | - | - | 0 W/m² | - |
| 1778064414 | 36.11° C | 36% | 963 hPa | - | - | 0 W/m² | - |
* Rain since midnight (hover to see other rain measurements)
** Current wind speed in m/s (hover to see current wind gust speed)